DISCOBAYS Weather Reports


Display with metric or nautical units.
time (UTC)temp
F
wind
direction
speed
MPH
gust
MPH
rain 1hr
in
rain 24hr
in
rain mn
in
humidity
%
barometer
mb
20260505003046 67 14 4.0 9.0 0.00 0.00 0.00 63 1011.7
20260505001527 67 5 5.0 9.0 0.00 0.00 0.00 61 1011.6
20260505000050 67 15 3.0 9.0 0.00 0.00 0.00 61 1011.7
20260504234528 68 13 2.0 11.0 0.00 0.00 0.00 60 1011.6
20260504233056 70 38 3.0 8.0 0.00 0.00 0.00 59 1011.5
20260504231538 70 15 4.0 9.0 0.00 0.00 0.00 55 1011.6
20260504230006 70 360 7.0 10.0 0.00 0.00 0.00 53 1011.5
20260504224548 69 31 1.0 8.0 0.00 0.00 0.00 52 1011.8
20260504223012 68 22 4.0 9.0 0.00 0.00 0.00 56 1011.9
20260504221546 68 19 7.0 12.0 0.00 0.00 0.00 54 1012.0
20260504220024 68 14 7.0 12.0 0.00 0.00 0.00 55 1012.1
20260504214557 68 22 8.0 14.0 0.00 0.00 0.00 56 1012.1
20260504213024 70 5 7.0 13.0 0.00 0.00 0.00 52 1012.2
20260504211559 73 22 5.0 9.0 0.00 0.00 0.00 47 1012.3
20260504211502 73 355 4.0 9.0 0.00 0.00 0.00 48 1012.3
20260504210032 72 65 7.0 11.0 0.00 0.00 0.00 48 1012.3
20260504204515 71 28 6.0 11.0 0.00 0.00 0.00 52 1012.3
20260504203049 71 39 5.0 13.0 0.00 0.00 0.00 56 1012.3
20260504201528 70 48 5.0 11.0 0.00 0.00 0.00 58 1012.4
20260504200101 70 39 6.0 10.0 0.00 0.00 0.00 57 1012.4
20260504194539 69 47 6.0 10.0 0.00 0.00 0.00 57 1012.5
20260504193059 69 60 6.0 11.0 0.00 0.00 0.00 57 1012.4
20260504191551 69 17 6.0 13.0 0.00 0.00 0.00 54 1012.5
20260504190010 68 38 6.0 12.0 0.00 0.00 0.00 56 1012.5
20260504184554 68 5 1.0 10.0 0.00 0.00 0.00 56 1012.6
20260504183012 67 38 2.0 14.0 0.00 0.00 0.00 59 1012.8
20260504181549 66 5 8.0 14.0 0.00 0.00 0.00 62 1012.8
20260504180012 65 37 7.0 12.0 0.00 0.00 0.00 64 1012.7
20260504174548 65 27 6.0 13.0 0.00 0.00 0.00 65 1012.7
20260504173029 66 42 0.0 10.0 0.00 0.00 0.00 62 1012.7
20260504171510 66 34 0.0 11.0 0.00 0.00 0.00 61 1012.7
20260504081530 54 11 0.0 1.0 0.00 0.00 0.00 75 1011.1
20260504044519 60 11 0.0 0.0 0.00 0.00 0.00 62 1011.6
20260504043039 60 11 0.0 0.0 0.00 0.00 0.00 63 1011.5
20260504041519 61 11 0.0 0.0 0.00 0.00 0.00 61 1011.6
20260504040059 62 11 0.0 0.0 0.00 0.00 0.00 61 1011.4
20260504034524 62 11 0.0 0.0 0.00 0.00 0.00 57 1011.3
20260504033114 63 11 0.0 0.0 0.00 0.00 0.00 55 1011.2
20260504031527 64 11 0.0 0.0 0.00 0.00 0.00 53 1011.3
20260504030015 66 11 0.0 0.0 0.00 0.00 0.00 57 1011.3
20260504024547 66 11 0.0 0.0 0.00 0.00 0.00 55 1011.4
20260504023013 67 11 0.0 0.0 0.00 0.00 0.00 57 1011.4
20260504021551 69 11 0.0 0.0 0.00 0.00 0.00 58 1011.5
20260504020015 69 11 0.0 0.0 0.00 0.00 0.00 51 1011.6
20260504014550 70 11 0.0 3.0 0.00 0.00 0.00 45 1011.7
20260504013018 71 11 1.0 8.0 0.00 0.00 0.00 41 1011.8
20260504011548 71 35 0.0 11.0 0.00 0.00 0.00 43 1011.9
20260504010020 72 339 0.0 11.0 0.00 0.00 0.00 42 1012.2
20260504004607 73 31 0.0 9.0 0.00 0.00 0.00 43 1012.3